Time,TemperatureF,DewpointF,PressureIn,WindDirection,WindDirectionDegrees,WindSpeedMPH,WindSpeedGustMPH,Humidity,HourlyPrecipIn,Conditions,Clouds,dailyrainin,SoftwareType,DateUTC
2013-10-18 00:23:00,59.0,53.0,29.94,SE,134,0.0,0.0,81,0.00,,,0.00,,2013-10-18 05:23:00,
2013-10-18 00:52:00,59.0,54.0,29.94,SE,134,0.0,0.0,82,0.00,,,0.00,,2013-10-18 05:52:00,
2013-10-18 01:21:00,58.0,53.0,29.94,SE,134,0.0,0.0,82,0.00,,,0.00,,2013-10-18 06:21:00,
2013-10-18 01:33:00,58.0,53.0,29.94,SE,134,0.0,0.0,82,0.00,,,0.00,,2013-10-18 06:33:00,
2013-10-18 01:42:00,58.0,53.0,29.94,SE,134,0.0,0.0,82,0.00,,,0.00,,2013-10-18 06:42:00,
2013-10-18 01:52:00,58.0,52.0,29.93,SE,134,0.0,0.0,81,0.00,,,0.00,,2013-10-18 06:52:00,
2013-10-18 02:11:00,58.0,53.0,29.93,SE,134,0.0,0.0,82,0.00,,,0.00,,2013-10-18 07:11:00,
2013-10-18 02:21:00,57.0,52.0,29.93,SE,134,0.0,0.0,83,0.00,,,0.00,,2013-10-18 07:21:00,
2013-10-18 02:42:00,58.0,53.0,29.93,SE,134,0.0,0.0,83,0.00,,,0.00,,2013-10-18 07:42:00,
2013-10-18 02:52:00,57.0,52.0,29.92,SE,134,0.0,0.0,84,0.00,,,0.00,,2013-10-18 07:52:00,
2013-10-18 03:22:00,57.0,53.0,29.92,SE,134,0.0,0.0,85,0.00,,,0.00,,2013-10-18 08:22:00,
2013-10-18 03:42:00,57.0,53.0,29.92,SE,134,0.0,0.0,86,0.00,,,0.00,,2013-10-18 08:42:00,
2013-10-18 03:52:00,57.0,53.0,29.92,SE,134,0.0,0.0,87,0.00,,,0.00,,2013-10-18 08:52:00,
2013-10-18 04:12:00,57.0,53.0,29.91,SE,134,0.0,0.0,88,0.00,,,0.00,,2013-10-18 09:12:00,
2013-10-18 04:21:00,57.0,54.0,29.91,SE,134,0.0,0.0,89,0.00,,,0.00,,2013-10-18 09:21:00,
2013-10-18 04:53:00,57.0,54.0,29.90,SE,134,0.0,0.0,90,0.00,,,0.00,,2013-10-18 09:53:00,
2013-10-18 05:23:00,58.0,54.0,29.89,SE,134,0.0,0.0,87,0.00,,,0.00,,2013-10-18 10:23:00,
2013-10-18 05:53:00,59.0,53.0,29.89,SE,134,2.0,6.0,81,0.00,,,0.00,,2013-10-18 10:53:00,
2013-10-18 06:12:00,59.0,53.0,29.89,SE,134,0.0,7.0,80,0.00,,,0.00,,2013-10-18 11:12:00,
2013-10-18 06:22:00,59.0,52.0,29.89,SE,134,1.0,8.0,79,0.00,,,0.00,,2013-10-18 11:22:00,
2013-10-18 06:52:00,60.0,53.0,29.89,SSE,147,0.0,7.0,77,0.00,,,0.00,,2013-10-18 11:52:00,
2013-10-18 07:12:00,60.0,52.0,29.89,South,169,1.0,7.0,76,0.00,,,0.00,,2013-10-18 12:12:00,
2013-10-18 07:21:00,60.0,52.0,29.89,SSE,157,2.0,7.0,76,0.00,,,0.00,,2013-10-18 12:21:00,
2013-10-18 07:42:00,60.0,52.0,29.89,SSE,148,0.0,9.0,76,0.00,,,0.00,,2013-10-18 12:42:00,
2013-10-18 07:52:00,60.0,52.0,29.89,SSE,148,2.0,7.0,76,0.00,,,0.00,,2013-10-18 12:52:00,
2013-10-18 08:11:00,60.0,52.0,29.90,SSE,148,0.0,7.0,76,0.00,,,0.00,,2013-10-18 13:11:00,
2013-10-18 08:22:00,60.0,52.0,29.90,SSE,148,1.0,8.0,76,0.00,,,0.00,,2013-10-18 13:22:00,
2013-10-18 08:42:00,60.0,52.0,29.90,SE,140,1.0,7.0,76,0.00,,,0.00,,2013-10-18 13:42:00,
2013-10-18 08:52:00,60.0,52.0,29.91,SE,140,0.0,9.0,76,0.00,,,0.00,,2013-10-18 13:52:00,
2013-10-18 09:21:00,61.0,53.0,29.91,SE,139,0.0,6.0,76,0.00,,,0.00,,2013-10-18 14:21:00,
2013-10-18 09:42:00,61.0,53.0,29.92,SE,136,0.0,6.0,76,0.00,,,0.00,,2013-10-18 14:42:00,
2013-10-18 09:52:00,61.0,53.0,29.92,SE,146,2.0,9.0,76,0.00,,,0.00,,2013-10-18 14:52:00,
2013-10-18 10:22:00,61.0,54.0,29.92,SE,145,3.0,7.0,78,0.00,,,0.00,,2013-10-18 15:22:00,
2013-10-18 10:43:00,61.0,54.0,29.92,SE,145,0.0,5.0,79,0.00,,,0.00,,2013-10-18 15:43:00,
2013-10-18 10:54:00,61.0,54.0,29.92,SE,145,0.0,5.0,79,0.00,,,0.00,,2013-10-18 15:54:00,
2013-10-18 11:24:00,62.0,55.0,29.93,SE,145,0.0,0.0,78,0.00,,,0.00,,2013-10-18 16:24:00,
2013-10-18 11:42:00,62.0,55.0,29.93,SE,145,0.0,0.0,79,0.00,,,0.00,,2013-10-18 16:42:00,
2013-10-18 11:53:00,63.0,56.0,29.92,SE,145,3.0,7.0,77,0.00,,,0.00,,2013-10-18 16:53:00,
2013-10-18 12:12:00,63.0,56.0,29.92,SE,145,0.0,9.0,77,0.00,,,0.00,,2013-10-18 17:12:00,
2013-10-18 12:22:00,64.0,56.0,29.91,SE,145,3.0,7.0,76,0.00,,,0.00,,2013-10-18 17:22:00,
2013-10-18 12:42:00,65.0,57.0,29.91,SE,145,1.0,6.0,75,0.00,,,0.00,,2013-10-18 17:42:00,
2013-10-18 12:52:00,65.0,57.0,29.90,SE,145,2.0,6.0,75,0.00,,,0.00,,2013-10-18 17:52:00,
2013-10-18 13:12:00,65.0,57.0,29.89,SE,145,2.0,6.0,75,0.00,,,0.00,,2013-10-18 18:12:00,
2013-10-18 13:22:00,65.0,57.0,29.89,SE,145,0.0,2.0,76,0.00,,,0.00,,2013-10-18 18:22:00,
2013-10-18 13:52:00,66.0,58.0,29.87,SE,145,3.0,6.0,76,0.00,,,0.00,,2013-10-18 18:52:00,
2013-10-18 14:12:00,67.0,58.0,29.85,SE,146,0.0,6.0,74,0.00,,,0.00,,2013-10-18 19:12:00,
2013-10-18 14:22:00,68.0,59.0,29.85,SE,146,1.0,7.0,74,0.00,,,0.00,,2013-10-18 19:22:00,
2013-10-18 14:42:00,68.0,59.0,29.84,SE,145,0.0,7.0,74,0.00,,,0.00,,2013-10-18 19:42:00,
2013-10-18 14:52:00,68.0,59.0,29.84,SE,145,0.0,4.0,74,0.00,,,0.00,,2013-10-18 19:52:00,
2013-10-18 15:11:00,69.0,60.0,29.83,SE,145,2.0,5.0,73,0.00,,,0.00,,2013-10-18 20:11:00,
2013-10-18 15:22:00,69.0,60.0,29.83,SE,145,0.0,5.0,73,0.00,,,0.00,,2013-10-18 20:22:00,
2013-10-18 15:42:00,70.0,61.0,29.82,SE,145,0.0,7.0,72,0.00,,,0.00,,2013-10-18 20:42:00,
2013-10-18 15:52:00,70.0,61.0,29.82,SE,145,0.0,7.0,72,0.00,,,0.00,,2013-10-18 20:52:00,
2013-10-18 16:02:00,70.0,61.0,29.82,SE,145,0.0,7.0,72,0.00,,,0.00,,2013-10-18 21:02:00,
2013-10-18 16:12:00,70.0,61.0,29.82,SE,145,0.0,7.0,72,0.00,,,0.00,,2013-10-18 21:12:00,